contact:dominique.lefevre@mio.osupytheas.fr, maurice.libes@osupytheas.fr, didier.mallarino@osupytheas.fr
Project:EMSO http://www.emso-fr.org/EMSO-France
Depth: 2436.0 m
Title:EMSO Ligure Ouest : Data MII capteur CSTAR
DateTime,Latitude,Longitude,Instrument_Serial,Reference_Counts,Signal_Counts,Corrected_Signal_raw_counts,Calculated_Beam_c_inverse_meters,Internal_thermistor_counts
DateTime,Latitude,Longitude,Instrument_Serial,Reference_Counts,Signal_Counts,Corrected_Signal_raw_counts,Calculated_Beam_c_inverse_meters,Internal_thermistor_counts
2021-12-07T00:00:42,42.805,6.029,CST-1368DR,5039,6534,13863,0.476,551
2021-12-07T00:03:44,42.805,6.029,CST-1368DR,5039,6532,13859,0.477,551
2021-12-07T00:06:46,42.805,6.029,CST-1368DR,5039,6533,13861,0.477,551
2021-12-07T00:09:47,42.805,6.029,CST-1368DR,5039,6532,13860,0.477,551
2021-12-07T00:12:49,42.805,6.029,CST-1368DR,5040,6533,13858,0.478,551
2021-12-07T00:15:50,42.805,6.029,CST-1368DR,5040,6533,13859,0.477,551
2021-12-07T00:18:52,42.805,6.029,CST-1368DR,5039,6533,13861,0.477,551
2021-12-07T00:21:54,42.805,6.029,CST-1368DR,5040,6534,13860,0.477,551
2021-12-07T00:24:55,42.805,6.029,CST-1368DR,5040,6532,13857,0.478,551
2021-12-07T00:27:57,42.805,6.029,CST-1368DR,5039,6532,13860,0.477,551
2021-12-07T00:30:58,42.805,6.029,CST-1368DR,5040,6533,13859,0.477,551
2021-12-07T00:34:00,42.805,6.029,CST-1368DR,5039,6533,13862,0.477,551
2021-12-07T00:37:01,42.805,6.029,CST-1368DR,5039,6533,13861,0.477,550
2021-12-07T00:40:03,42.805,6.029,CST-1368DR,5039,6534,13863,0.476,551
2021-12-07T00:43:05,42.805,6.029,CST-1368DR,5039,6533,13861,0.477,551
2021-12-07T00:46:06,42.805,6.029,CST-1368DR,5040,6534,13860,0.477,551
2021-12-07T00:49:08,42.805,6.029,CST-1368DR,5039,6534,13863,0.476,551
2021-12-07T00:52:09,42.805,6.029,CST-1368DR,5039,6533,13861,0.477,551
2021-12-07T00:55:11,42.805,6.029,CST-1368DR,5039,6534,13864,0.476,551
2021-12-07T00:58:12,42.805,6.029,CST-1368DR,5039,6533,13862,0.477,551
2021-12-07T01:01:14,42.805,6.029,CST-1368DR,5039,6534,13864,0.476,551
2021-12-07T01:04:16,42.805,6.029,CST-1368DR,5039,6534,13864,0.476,551
2021-12-07T01:07:17,42.805,6.029,CST-1368DR,5039,6534,13864,0.476,551
2021-12-07T01:10:19,42.805,6.029,CST-1368DR,5039,6535,13865,0.476,551
2021-12-07T01:13:20,42.805,6.029,CST-1368DR,5039,6534,13864,0.476,551
2021-12-07T01:16:22,42.805,6.029,CST-1368DR,5039,6534,13863,0.476,551
2021-12-07T01:19:24,42.805,6.029,CST-1368DR,5039,6532,13860,0.477,551
2021-12-07T01:22:25,42.805,6.029,CST-1368DR,5039,6534,13863,0.476,551
2021-12-07T01:25:27,42.805,6.029,CST-1368DR,5039,6534,13864,0.476,551
2021-12-07T01:28:28,42.805,6.029,CST-1368DR,5039,6533,13861,0.477,551
2021-12-07T01:31:30,42.805,6.029,CST-1368DR,5039,6533,13861,0.477,551
2021-12-07T01:34:31,42.805,6.029,CST-1368DR,5039,6534,13864,0.476,551
2021-12-07T01:37:33,42.805,6.029,CST-1368DR,5039,6534,13863,0.476,551
2021-12-07T01:40:35,42.805,6.029,CST-1368DR,5039,6534,13864,0.476,551
2021-12-07T01:43:36,42.805,6.029,CST-1368DR,5039,6533,13862,0.477,551
2021-12-07T01:46:38,42.805,6.029,CST-1368DR,5039,6533,13861,0.477,551
2021-12-07T01:49:39,42.805,6.029,CST-1368DR,5039,6533,13862,0.477,551
2021-12-07T01:52:41,42.805,6.029,CST-1368DR,5039,6532,13860,0.477,551
2021-12-07T01:55:43,42.805,6.029,CST-1368DR,5039,6533,13861,0.477,551
2021-12-07T01:58:44,42.805,6.029,CST-1368DR,5039,6533,13861,0.477,551
2021-12-07T02:01:46,42.805,6.029,CST-1368DR,5039,6533,13861,0.477,551
2021-12-07T02:04:47,42.805,6.029,CST-1368DR,5039,6533,13861,0.477,551
2021-12-07T02:07:49,42.805,6.029,CST-1368DR,5039,6534,13863,0.476,551
2021-12-07T02:10:50,42.805,6.029,CST-1368DR,5039,6532,13860,0.477,551
2021-12-07T02:13:52,42.805,6.029,CST-1368DR,5039,6533,13861,0.477,551
2021-12-07T02:16:54,42.805,6.029,CST-1368DR,5039,6534,13863,0.476,551
2021-12-07T02:19:55,42.805,6.029,CST-1368DR,5039,6534,13863,0.476,551
2021-12-07T02:22:57,42.805,6.029,CST-1368DR,5039,6534,13864,0.476,551
2021-12-07T02:25:58,42.805,6.029,CST-1368DR,5039,6534,13863,0.476,551
2021-12-07T02:29:00,42.805,6.029,CST-1368DR,5039,6533,13862,0.477,551
2021-12-07T02:32:02,42.805,6.029,CST-1368DR,5039,6533,13861,0.477,551
2021-12-07T02:35:03,42.805,6.029,CST-1368DR,5039,6533,13862,0.477,551
2021-12-07T02:38:05,42.805,6.029,CST-1368DR,5039,6534,13863,0.476,551
2021-12-07T02:41:06,42.805,6.029,CST-1368DR,5039,6533,13861,0.477,551
2021-12-07T02:44:08,42.805,6.029,CST-1368DR,5039,6533,13861,0.477,551
2021-12-07T02:47:09,42.805,6.029,CST-1368DR,5039,6532,13858,0.478,551
2021-12-07T02:50:11,42.805,6.029,CST-1368DR,5039,6533,13861,0.477,551
2021-12-07T02:53:13,42.805,6.029,CST-1368DR,5039,6533,13862,0.477,551
2021-12-07T02:56:14,42.805,6.029,CST-1368DR,5039,6533,13862,0.477,551
2021-12-07T02:59:16,42.805,6.029,CST-1368DR,5039,6533,13861,0.477,551
2021-12-07T03:02:17,42.805,6.029,CST-1368DR,5039,6533,13862,0.477,551
2021-12-07T03:05:19,42.805,6.029,CST-1368DR,5039,6533,13862,0.477,551
2021-12-07T03:08:20,42.805,6.029,CST-1368DR,5039,6534,13863,0.476,551
2021-12-07T03:11:22,42.805,6.029,CST-1368DR,5039,6533,13861,0.477,551
2021-12-07T03:14:24,42.805,6.029,CST-1368DR,5039,6533,13861,0.477,551
2021-12-07T03:17:25,42.805,6.029,CST-1368DR,5039,6533,13861,0.477,551
2021-12-07T03:20:27,42.805,6.029,CST-1368DR,5039,6534,13863,0.476,551
2021-12-07T03:23:28,42.805,6.029,CST-1368DR,5039,6533,13861,0.477,551
2021-12-07T03:26:30,42.805,6.029,CST-1368DR,5039,6532,13859,0.477,551
2021-12-07T03:29:32,42.805,6.029,CST-1368DR,5039,6531,13857,0.478,551
2021-12-07T03:32:33,42.805,6.029,CST-1368DR,5039,6533,13861,0.477,551
2021-12-07T03:35:35,42.805,6.029,CST-1368DR,5039,6532,13860,0.477,551
2021-12-07T03:38:36,42.805,6.029,CST-1368DR,5039,6533,13861,0.477,551
2021-12-07T03:41:38,42.805,6.029,CST-1368DR,5039,6533,13861,0.477,551
2021-12-07T03:44:40,42.805,6.029,CST-1368DR,5039,6532,13859,0.477,551
2021-12-07T03:47:41,42.805,6.029,CST-1368DR,5039,6533,13861,0.477,551
2021-12-07T03:50:43,42.805,6.029,CST-1368DR,5039,6533,13861,0.477,551
2021-12-07T03:53:44,42.805,6.029,CST-1368DR,5039,6534,13863,0.476,551
2021-12-07T03:56:46,42.805,6.029,CST-1368DR,5039,6533,13861,0.477,551
2021-12-07T03:59:47,42.805,6.029,CST-1368DR,5039,6532,13860,0.477,551
2021-12-07T04:02:49,42.805,6.029,CST-1368DR,5039,6532,13860,0.477,551
2021-12-07T04:05:51,42.805,6.029,CST-1368DR,5039,6533,13861,0.477,551
2021-12-07T04:08:52,42.805,6.029,CST-1368DR,5039,6534,13863,0.476,551
2021-12-07T04:11:54,42.805,6.029,CST-1368DR,5039,6533,13861,0.477,551
2021-12-07T04:14:55,42.805,6.029,CST-1368DR,5039,6533,13861,0.477,551
2021-12-07T04:17:57,42.805,6.029,CST-1368DR,5039,6532,13858,0.478,551
2021-12-07T04:20:58,42.805,6.029,CST-1368DR,5039,6532,13860,0.477,551
2021-12-07T04:24:00,42.805,6.029,CST-1368DR,5039,6533,13862,0.477,551
2021-12-07T04:27:02,42.805,6.029,CST-1368DR,5039,6532,13860,0.477,551
2021-12-07T04:30:03,42.805,6.029,CST-1368DR,5039,6532,13858,0.478,551
2021-12-07T04:33:05,42.805,6.029,CST-1368DR,5039,6533,13861,0.477,551
2021-12-07T04:36:06,42.805,6.029,CST-1368DR,5039,6533,13862,0.477,551
2021-12-07T04:39:08,42.805,6.029,CST-1368DR,5039,6532,13860,0.477,551
2021-12-07T04:42:10,42.805,6.029,CST-1368DR,5039,6532,13860,0.477,551
2021-12-07T04:45:11,42.805,6.029,CST-1368DR,5039,6533,13861,0.477,551
2021-12-07T04:48:13,42.805,6.029,CST-1368DR,5039,6533,13861,0.477,551
2021-12-07T04:51:14,42.805,6.029,CST-1368DR,5039,6533,13861,0.477,551
2021-12-07T04:54:16,42.805,6.029,CST-1368DR,5039,6533,13861,0.477,551
2021-12-07T04:57:17,42.805,6.029,CST-1368DR,5039,6531,13858,0.478,551
2021-12-07T05:00:19,42.805,6.029,CST-1368DR,5039,6532,13860,0.477,551
2021-12-07T05:03:21,42.805,6.029,CST-1368DR,5039,6532,13858,0.478,551
2021-12-07T05:06:22,42.805,6.029,CST-1368DR,5039,6532,13858,0.478,551
2021-12-07T05:09:24,42.805,6.029,CST-1368DR,5039,6533,13861,0.477,551
2021-12-07T05:12:25,42.805,6.029,CST-1368DR,5039,6531,13858,0.478,551
2021-12-07T05:15:27,42.805,6.029,CST-1368DR,5039,6532,13860,0.477,551
2021-12-07T05:18:29,42.805,6.029,CST-1368DR,5039,6533,13861,0.477,551
2021-12-07T05:21:30,42.805,6.029,CST-1368DR,5039,6532,13860,0.477,551
2021-12-07T05:24:32,42.805,6.029,CST-1368DR,5039,6532,13860,0.477,551
2021-12-07T05:27:33,42.805,6.029,CST-1368DR,5039,6533,13861,0.477,551
2021-12-07T05:30:35,42.805,6.029,CST-1368DR,5039,6532,13859,0.477,551
2021-12-07T05:33:36,42.805,6.029,CST-1368DR,5039,6532,13860,0.477,551
2021-12-07T05:36:38,42.805,6.029,CST-1368DR,5039,6532,13860,0.477,551
2021-12-07T05:39:40,42.805,6.029,CST-1368DR,5039,6532,13860,0.477,551
2021-12-07T05:42:41,42.805,6.029,CST-1368DR,5039,6533,13861,0.477,551
2021-12-07T05:45:43,42.805,6.029,CST-1368DR,5039,6532,13859,0.477,551
2021-12-07T05:48:44,42.805,6.029,CST-1368DR,5039,6532,13860,0.477,551
2021-12-07T05:51:46,42.805,6.029,CST-1368DR,5039,6530,13856,0.478,551
2021-12-07T05:54:47,42.805,6.029,CST-1368DR,5039,6532,13859,0.477,551
2021-12-07T05:57:49,42.805,6.029,CST-1368DR,5039,6532,13858,0.478,551
2021-12-07T06:00:51,42.805,6.029,CST-1368DR,5039,6531,13857,0.478,551
2021-12-07T06:03:52,42.805,6.029,CST-1368DR,5039,6532,13860,0.477,551
2021-12-07T06:06:54,42.805,6.029,CST-1368DR,5039,6532,13860,0.477,551
2021-12-07T06:09:55,42.805,6.029,CST-1368DR,5039,6532,13859,0.477,551
2021-12-07T06:12:57,42.805,6.029,CST-1368DR,5039,6532,13860,0.477,551
2021-12-07T06:15:59,42.805,6.029,CST-1368DR,5039,6532,13859,0.477,551
2021-12-07T06:19:00,42.805,6.029,CST-1368DR,5039,6533,13861,0.477,551
2021-12-07T06:22:02,42.805,6.029,CST-1368DR,5039,6532,13860,0.477,551
2021-12-07T06:25:03,42.805,6.029,CST-1368DR,5039,6532,13860,0.477,551
2021-12-07T06:28:05,42.805,6.029,CST-1368DR,5039,6533,13861,0.477,551
2021-12-07T06:31:06,42.805,6.029,CST-1368DR,5039,6532,13860,0.477,551
2021-12-07T06:34:08,42.805,6.029,CST-1368DR,5039,6532,13860,0.477,551
2021-12-07T06:37:10,42.805,6.029,CST-1368DR,5039,6532,13860,0.477,551
2021-12-07T06:40:11,42.805,6.029,CST-1368DR,5039,6532,13859,0.477,551
2021-12-07T06:43:13,42.805,6.029,CST-1368DR,5039,6532,13859,0.477,551
2021-12-07T06:46:14,42.805,6.029,CST-1368DR,5039,6532,13859,0.477,551
2021-12-07T06:49:16,42.805,6.029,CST-1368DR,5039,6532,13860,0.477,551
2021-12-07T06:52:18,42.805,6.029,CST-1368DR,5039,6532,13860,0.477,551
2021-12-07T06:55:19,42.805,6.029,CST-1368DR,5039,6532,13860,0.477,551
2021-12-07T06:58:21,42.805,6.029,CST-1368DR,5039,6533,13861,0.477,551
2021-12-07T07:01:22,42.805,6.029,CST-1368DR,5039,6532,13859,0.477,551
2021-12-07T07:04:24,42.805,6.029,CST-1368DR,5039,6533,13862,0.477,551
2021-12-07T07:07:25,42.805,6.029,CST-1368DR,5039,6532,13860,0.477,551
2021-12-07T07:10:27,42.805,6.029,CST-1368DR,5039,6532,13860,0.477,551
2021-12-07T07:13:29,42.805,6.029,CST-1368DR,5039,6532,13860,0.477,551
2021-12-07T07:16:30,42.805,6.029,CST-1368DR,5039,6533,13861,0.477,551
2021-12-07T07:19:32,42.805,6.029,CST-1368DR,5039,6533,13861,0.477,551
2021-12-07T07:22:33,42.805,6.029,CST-1368DR,5039,6532,13860,0.477,551
2021-12-07T07:25:35,42.805,6.029,CST-1368DR,5039,6532,13860,0.477,551
2021-12-07T07:28:37,42.805,6.029,CST-1368DR,5039,6532,13859,0.477,551
2021-12-07T07:31:38,42.805,6.029,CST-1368DR,5039,6531,13858,0.478,551
2021-12-07T07:34:40,42.805,6.029,CST-1368DR,5039,6532,13860,0.477,551
2021-12-07T07:37:41,42.805,6.029,CST-1368DR,5039,6532,13860,0.477,551
2021-12-07T07:40:43,42.805,6.029,CST-1368DR,5039,6532,13858,0.478,551
2021-12-07T07:43:44,42.805,6.029,CST-1368DR,5039,6532,13860,0.477,551
2021-12-07T07:46:46,42.805,6.029,CST-1368DR,5039,6532,13858,0.478,551
2021-12-07T07:49:48,42.805,6.029,CST-1368DR,5039,6531,13857,0.478,551
2021-12-07T07:52:49,42.805,6.029,CST-1368DR,5039,6532,13858,0.478,550
2021-12-07T07:55:51,42.805,6.029,CST-1368DR,5039,6532,13860,0.477,551
2021-12-07T07:58:52,42.805,6.029,CST-1368DR,5039,6531,13858,0.478,551
2021-12-07T08:01:54,42.805,6.029,CST-1368DR,5039,6532,13859,0.477,551
2021-12-07T08:04:55,42.805,6.029,CST-1368DR,5039,6532,13860,0.477,551
2021-12-07T08:07:57,42.805,6.029,CST-1368DR,5039,6532,13858,0.478,551
2021-12-07T08:10:59,42.805,6.029,CST-1368DR,5039,6531,13858,0.478,551
2021-12-07T08:14:00,42.805,6.029,CST-1368DR,5039,6531,13857,0.478,551
2021-12-07T08:17:02,42.805,6.029,CST-1368DR,5039,6532,13860,0.477,551
2021-12-07T08:20:03,42.805,6.029,CST-1368DR,5039,6532,13859,0.477,551
2021-12-07T08:23:05,42.805,6.029,CST-1368DR,5039,6532,13858,0.478,551
2021-12-07T08:26:07,42.805,6.029,CST-1368DR,5039,6532,13859,0.477,551
2021-12-07T08:29:08,42.805,6.029,CST-1368DR,5039,6531,13858,0.478,551
2021-12-07T08:32:10,42.805,6.029,CST-1368DR,5039,6532,13858,0.478,550
2021-12-07T08:35:11,42.805,6.029,CST-1368DR,5039,6531,13858,0.478,551
2021-12-07T08:38:13,42.805,6.029,CST-1368DR,5039,6531,13857,0.478,551
2021-12-07T08:41:14,42.805,6.029,CST-1368DR,5039,6531,13857,0.478,551
2021-12-07T08:44:16,42.805,6.029,CST-1368DR,5039,6530,13856,0.478,551
2021-12-07T08:47:18,42.805,6.029,CST-1368DR,5039,6530,13854,0.479,551
2021-12-07T08:50:19,42.805,6.029,CST-1368DR,5039,6530,13855,0.479,551
2021-12-07T08:53:21,42.805,6.029,CST-1368DR,5039,6529,13854,0.479,551
2021-12-07T08:56:22,42.805,6.029,CST-1368DR,5039,6530,13855,0.479,551
2021-12-07T08:59:24,42.805,6.029,CST-1368DR,5039,6531,13856,0.478,551
2021-12-07T09:02:25,42.805,6.029,CST-1368DR,5039,6531,13858,0.478,551
2021-12-07T09:05:27,42.805,6.029,CST-1368DR,5039,6531,13856,0.478,551
2021-12-07T09:08:29,42.805,6.029,CST-1368DR,5039,6529,13854,0.479,551
2021-12-07T09:11:30,42.805,6.029,CST-1368DR,5039,6532,13858,0.478,551
2021-12-07T09:14:32,42.805,6.029,CST-1368DR,5039,6528,13851,0.480,551
2021-12-07T09:17:33,42.805,6.029,CST-1368DR,5039,6531,13856,0.478,551
2021-12-07T09:20:35,42.805,6.029,CST-1368DR,5039,6531,13857,0.478,551
2021-12-07T09:23:37,42.805,6.029,CST-1368DR,5039,6531,13857,0.478,551
2021-12-07T09:26:38,42.805,6.029,CST-1368DR,5039,6530,13855,0.479,551
2021-12-07T09:29:40,42.805,6.029,CST-1368DR,5039,6531,13857,0.478,551
2021-12-07T09:32:41,42.805,6.029,CST-1368DR,5039,6531,13856,0.478,551
2021-12-07T09:35:43,42.805,6.029,CST-1368DR,5039,6530,13855,0.479,551
2021-12-07T09:38:44,42.805,6.029,CST-1368DR,5039,6531,13856,0.478,551
2021-12-07T09:41:46,42.805,6.029,CST-1368DR,5039,6530,13855,0.479,551
2021-12-07T09:44:48,42.805,6.029,CST-1368DR,5038,6530,13858,0.478,551
2021-12-07T09:47:49,42.805,6.029,CST-1368DR,5039,6527,13849,0.480,551
2021-12-07T09:50:51,42.805,6.029,CST-1368DR,5039,6529,13853,0.479,551
2021-12-07T09:53:52,42.805,6.029,CST-1368DR,5039,6530,13855,0.479,551
2021-12-07T09:56:54,42.805,6.029,CST-1368DR,5039,6530,13855,0.479,551
2021-12-07T09:59:56,42.805,6.029,CST-1368DR,5039,6529,13854,0.479,551
2021-12-07T10:02:57,42.805,6.029,CST-1368DR,5039,6530,13856,0.478,551
2021-12-07T10:05:59,42.805,6.029,CST-1368DR,5039,6531,13857,0.478,551
2021-12-07T10:09:00,42.805,6.029,CST-1368DR,5039,6530,13856,0.478,551
2021-12-07T10:12:02,42.805,6.029,CST-1368DR,5039,6531,13857,0.478,551
2021-12-07T10:15:03,42.805,6.029,CST-1368DR,5039,6530,13854,0.479,551
2021-12-07T10:18:05,42.805,6.029,CST-1368DR,5039,6531,13856,0.478,551
2021-12-07T10:21:07,42.805,6.029,CST-1368DR,5039,6531,13856,0.478,551
2021-12-07T10:24:08,42.805,6.029,CST-1368DR,5039,6531,13857,0.478,551
2021-12-07T10:27:10,42.805,6.029,CST-1368DR,5039,6531,13856,0.478,551
2021-12-07T10:30:11,42.805,6.029,CST-1368DR,5038,6530,13857,0.478,551
2021-12-07T10:33:13,42.805,6.029,CST-1368DR,5039,6531,13856,0.478,551
2021-12-07T10:36:15,42.805,6.029,CST-1368DR,5038,6530,13858,0.478,551
2021-12-07T10:39:16,42.805,6.029,CST-1368DR,5038,6530,13858,0.478,551
2021-12-07T10:42:18,42.805,6.029,CST-1368DR,5038,6530,13857,0.478,551
2021-12-07T10:45:19,42.805,6.029,CST-1368DR,5038,6529,13856,0.478,551
2021-12-07T10:48:21,42.805,6.029,CST-1368DR,5038,6529,13856,0.478,551
2021-12-07T10:51:22,42.805,6.029,CST-1368DR,5038,6529,13856,0.478,551
2021-12-07T10:54:24,42.805,6.029,CST-1368DR,5038,6530,13857,0.478,551
2021-12-07T10:57:26,42.805,6.029,CST-1368DR,5038,6529,13855,0.479,551
2021-12-07T11:00:27,42.805,6.029,CST-1368DR,5038,6530,13857,0.478,551
2021-12-07T11:03:29,42.805,6.029,CST-1368DR,5038,6530,13857,0.478,551
2021-12-07T11:06:30,42.805,6.029,CST-1368DR,5038,6529,13856,0.478,551
2021-12-07T11:09:32,42.805,6.029,CST-1368DR,5038,6529,13856,0.478,551
2021-12-07T11:12:33,42.805,6.029,CST-1368DR,5038,6530,13857,0.478,551
2021-12-07T11:15:35,42.805,6.029,CST-1368DR,5038,6530,13857,0.478,551
2021-12-07T11:18:37,42.805,6.029,CST-1368DR,5038,6531,13859,0.477,551
2021-12-07T11:21:38,42.805,6.029,CST-1368DR,5038,6530,13857,0.478,551
2021-12-07T11:24:40,42.805,6.029,CST-1368DR,5038,6529,13856,0.478,551
2021-12-07T11:27:41,42.805,6.029,CST-1368DR,5038,6530,13857,0.478,550
2021-12-07T11:30:43,42.805,6.029,CST-1368DR,5038,6530,13857,0.478,551
2021-12-07T11:33:45,42.805,6.029,CST-1368DR,5038,6530,13857,0.478,550
2021-12-07T11:36:46,42.805,6.029,CST-1368DR,5038,6531,13859,0.477,551
2021-12-07T11:39:48,42.805,6.029,CST-1368DR,5038,6530,13858,0.478,551
2021-12-07T11:42:49,42.805,6.029,CST-1368DR,5038,6530,13858,0.478,551
2021-12-07T11:45:51,42.805,6.029,CST-1368DR,5038,6530,13858,0.478,551
2021-12-07T11:48:52,42.805,6.029,CST-1368DR,5038,6530,13857,0.478,551
2021-12-07T11:51:54,42.805,6.029,CST-1368DR,5038,6529,13856,0.478,551
2021-12-07T11:54:56,42.805,6.029,CST-1368DR,5038,6530,13857,0.478,551
2021-12-07T11:57:57,42.805,6.029,CST-1368DR,5038,6530,13857,0.478,551
2021-12-07T12:00:59,42.805,6.029,CST-1368DR,5038,6530,13857,0.478,551
2021-12-07T12:04:00,42.805,6.029,CST-1368DR,5038,6530,13857,0.478,551
2021-12-07T12:07:02,42.805,6.029,CST-1368DR,5038,6529,13856,0.478,551
2021-12-07T12:10:04,42.805,6.029,CST-1368DR,5038,6530,13857,0.478,551
2021-12-07T12:13:05,42.805,6.029,CST-1368DR,5038,6530,13857,0.478,551
2021-12-07T12:16:07,42.805,6.029,CST-1368DR,5038,6529,13856,0.478,551
2021-12-07T12:19:08,42.805,6.029,CST-1368DR,5038,6530,13857,0.478,551
2021-12-07T12:22:10,42.805,6.029,CST-1368DR,5038,6530,13858,0.478,551
2021-12-07T12:25:11,42.805,6.029,CST-1368DR,5038,6529,13856,0.478,551
2021-12-07T12:28:13,42.805,6.029,CST-1368DR,5038,6530,13857,0.478,551
2021-12-07T12:31:15,42.805,6.029,CST-1368DR,5038,6529,13856,0.478,551
2021-12-07T12:34:16,42.805,6.029,CST-1368DR,5038,6530,13857,0.478,551
2021-12-07T12:37:18,42.805,6.029,CST-1368DR,5038,6530,13857,0.478,551
2021-12-07T12:40:19,42.805,6.029,CST-1368DR,5038,6527,13852,0.479,551
2021-12-07T12:43:21,42.805,6.029,CST-1368DR,5038,6530,13858,0.478,551
2021-12-07T12:46:22,42.805,6.029,CST-1368DR,5038,6529,13856,0.478,551
2021-12-07T12:49:24,42.805,6.029,CST-1368DR,5038,6530,13857,0.478,551
2021-12-07T12:52:26,42.805,6.029,CST-1368DR,5038,6528,13853,0.479,551
2021-12-07T12:55:27,42.805,6.029,CST-1368DR,5038,6529,13856,0.478,551
2021-12-07T12:58:29,42.805,6.029,CST-1368DR,5038,6529,13856,0.478,551
2021-12-07T13:01:30,42.805,6.029,CST-1368DR,5038,6529,13855,0.479,551
2021-12-07T13:04:32,42.805,6.029,CST-1368DR,5038,6529,13856,0.478,551
2021-12-07T13:07:34,42.805,6.029,CST-1368DR,5038,6530,13857,0.478,551
2021-12-07T13:10:35,42.805,6.029,CST-1368DR,5038,6530,13858,0.478,551
2021-12-07T13:13:37,42.805,6.029,CST-1368DR,5038,6526,13850,0.480,551
2021-12-07T13:16:38,42.805,6.029,CST-1368DR,5038,6529,13856,0.478,551
2021-12-07T13:19:40,42.805,6.029,CST-1368DR,5038,6530,13857,0.478,551
2021-12-07T13:22:41,42.805,6.029,CST-1368DR,5038,6528,13854,0.479,551
2021-12-07T13:25:43,42.805,6.029,CST-1368DR,5038,6529,13855,0.479,551
2021-12-07T13:28:45,42.805,6.029,CST-1368DR,5038,6529,13856,0.478,551
2021-12-07T13:31:46,42.805,6.029,CST-1368DR,5038,6530,13857,0.478,551
2021-12-07T13:34:48,42.805,6.029,CST-1368DR,5038,6528,13854,0.479,551
2021-12-07T13:37:49,42.805,6.029,CST-1368DR,5038,6529,13856,0.478,551
2021-12-07T13:40:51,42.805,6.029,CST-1368DR,5038,6529,13856,0.478,551
2021-12-07T13:43:53,42.805,6.029,CST-1368DR,5038,6529,13856,0.478,551
2021-12-07T13:46:54,42.805,6.029,CST-1368DR,5038,6530,13857,0.478,551
2021-12-07T13:49:56,42.805,6.029,CST-1368DR,5038,6528,13854,0.479,551
2021-12-07T13:52:57,42.805,6.029,CST-1368DR,5038,6529,13856,0.478,551
2021-12-07T13:55:59,42.805,6.029,CST-1368DR,5038,6529,13856,0.478,551
2021-12-07T13:59:00,42.805,6.029,CST-1368DR,5038,6529,13856,0.478,551
2021-12-07T14:02:02,42.805,6.029,CST-1368DR,5038,6529,13856,0.478,551
2021-12-07T14:05:04,42.805,6.029,CST-1368DR,5038,6529,13856,0.478,551
2021-12-07T14:08:05,42.805,6.029,CST-1368DR,5038,6528,13854,0.479,551
2021-12-07T14:11:07,42.805,6.029,CST-1368DR,5038,6529,13855,0.479,551
2021-12-07T14:14:08,42.805,6.029,CST-1368DR,5038,6528,13854,0.479,551
2021-12-07T14:17:10,42.805,6.029,CST-1368DR,5038,6529,13856,0.478,551
2021-12-07T14:20:11,42.805,6.029,CST-1368DR,5038,6529,13855,0.479,551
2021-12-07T14:23:13,42.805,6.029,CST-1368DR,5038,6528,13854,0.479,551
2021-12-07T14:26:15,42.805,6.029,CST-1368DR,5038,6529,13856,0.478,551
2021-12-07T14:29:16,42.805,6.029,CST-1368DR,5038,6529,13855,0.479,551
2021-12-07T14:32:18,42.805,6.029,CST-1368DR,5038,6529,13855,0.479,551
2021-12-07T14:35:19,42.805,6.029,CST-1368DR,5038,6529,13855,0.479,551
2021-12-07T14:38:21,42.805,6.029,CST-1368DR,5038,6528,13854,0.479,551
2021-12-07T14:41:23,42.805,6.029,CST-1368DR,5038,6529,13855,0.479,551
2021-12-07T14:44:24,42.805,6.029,CST-1368DR,5038,6529,13855,0.479,551
2021-12-07T14:47:26,42.805,6.029,CST-1368DR,5038,6529,13856,0.478,551
2021-12-07T14:50:27,42.805,6.029,CST-1368DR,5038,6529,13855,0.479,551
2021-12-07T14:53:29,42.805,6.029,CST-1368DR,5038,6528,13854,0.479,551
2021-12-07T14:56:30,42.805,6.029,CST-1368DR,5038,6529,13855,0.479,551
2021-12-07T14:59:32,42.805,6.029,CST-1368DR,5038,6529,13856,0.478,551
2021-12-07T15:02:34,42.805,6.029,CST-1368DR,5038,6528,13853,0.479,551
2021-12-07T15:05:35,42.805,6.029,CST-1368DR,5038,6528,13854,0.479,551
2021-12-07T15:08:37,42.805,6.029,CST-1368DR,5038,6529,13855,0.479,551
2021-12-07T15:11:38,42.805,6.029,CST-1368DR,5038,6528,13854,0.479,551
2021-12-07T15:14:40,42.805,6.029,CST-1368DR,5038,6528,13854,0.479,551
2021-12-07T15:17:41,42.805,6.029,CST-1368DR,5038,6528,13854,0.479,551
2021-12-07T15:20:43,42.805,6.029,CST-1368DR,5038,6528,13854,0.479,551
2021-12-07T15:23:45,42.805,6.029,CST-1368DR,5038,6529,13855,0.479,551
2021-12-07T15:26:46,42.805,6.029,CST-1368DR,5038,6529,13855,0.479,551
2021-12-07T15:29:48,42.805,6.029,CST-1368DR,5038,6528,13854,0.479,551
2021-12-07T15:32:49,42.805,6.029,CST-1368DR,5038,6528,13854,0.479,551
2021-12-07T15:35:51,42.805,6.029,CST-1368DR,5038,6529,13856,0.478,551
2021-12-07T15:38:53,42.805,6.029,CST-1368DR,5038,6529,13855,0.479,551
2021-12-07T15:41:54,42.805,6.029,CST-1368DR,5038,6529,13855,0.479,551
2021-12-07T15:44:56,42.805,6.029,CST-1368DR,5038,6529,13856,0.478,551
2021-12-07T15:47:57,42.805,6.029,CST-1368DR,5038,6529,13856,0.478,551
2021-12-07T15:50:59,42.805,6.029,CST-1368DR,5038,6528,13854,0.479,551
2021-12-07T15:54:00,42.805,6.029,CST-1368DR,5038,6530,13857,0.478,551
2021-12-07T15:57:02,42.805,6.029,CST-1368DR,5038,6530,13857,0.478,551
2021-12-07T16:00:04,42.805,6.029,CST-1368DR,5038,6529,13856,0.478,551
2021-12-07T16:03:05,42.805,6.029,CST-1368DR,5038,6530,13857,0.478,551
2021-12-07T16:06:07,42.805,6.029,CST-1368DR,5038,6529,13855,0.479,551
2021-12-07T16:09:08,42.805,6.029,CST-1368DR,5038,6529,13856,0.478,551
2021-12-07T16:12:10,42.805,6.029,CST-1368DR,5038,6529,13855,0.479,551
2021-12-07T16:15:12,42.805,6.029,CST-1368DR,5038,6528,13853,0.479,551
2021-12-07T16:18:13,42.805,6.029,CST-1368DR,5038,6529,13856,0.478,551
2021-12-07T16:21:15,42.805,6.029,CST-1368DR,5038,6529,13855,0.479,551
2021-12-07T16:24:16,42.805,6.029,CST-1368DR,5038,6528,13854,0.479,551
2021-12-07T16:27:18,42.805,6.029,CST-1368DR,5038,6529,13856,0.478,551
2021-12-07T16:30:19,42.805,6.029,CST-1368DR,5038,6529,13856,0.478,551
2021-12-07T16:33:21,42.805,6.029,CST-1368DR,5038,6527,13852,0.479,551
2021-12-07T16:36:23,42.805,6.029,CST-1368DR,5038,6528,13854,0.479,551
2021-12-07T16:39:24,42.805,6.029,CST-1368DR,5038,6528,13854,0.479,551
2021-12-07T16:42:26,42.805,6.029,CST-1368DR,5038,6529,13855,0.479,551
2021-12-07T16:45:27,42.805,6.029,CST-1368DR,5038,6529,13855,0.479,551
2021-12-07T16:48:29,42.805,6.029,CST-1368DR,5038,6530,13857,0.478,551
2021-12-07T16:51:30,42.805,6.029,CST-1368DR,5038,6529,13856,0.478,551